User: anonymous   Login
Location: Unspecified
(35.6961°N, 0.0000°E)
Time: 03:38:17
(UTC+00:00)
Language:

Tiros 1 - Orbit

View from above orbital plane
View from above orbital plane
View from above satellite
View from above satellite

Ground track
Ground track

The orbit data is extracted from the following two-line orbital elements,

1    29U 60002B   19140.90979856 -.00000138 +00000-0 +10553-4 0  9998
2    29 048.3810 005.7939 0024227 347.9008 012.1319 14.74304053160474
Epoch (UTC): 20 May 2019 21:50:06
Eccentricity: 0.0024227
inclination: 48.3810°
perigee height: 630 km
apogee height: 664 km
right ascension of ascending node: 5.7939°
argument of perigee: 347.9008°
revolutions per day: 14.74304053
mean anomaly at epoch: 12.1319°
orbit number at epoch: 16047

The dashed part of the orbit path shows where the satellite is in the earth's shadow,  

DLR